Location: Azul
(36.7830°S, 59.8500°W)
Time: 09:15:50
(UTC-03:00)

UKube-1 - Pass Details

Date: 30 October 2021
Orbit: 611 x 617 km, 98.4° (Epoch: 07 December)

Event Time Altitude Azimuth Distance (km) Brightness Sun altitude
Exits shadow 21:33:01 23° 334° (NNW) 1,324 ? -22.2°
Maximum altitude 21:35:12 40° 279° (W) 929 ? -22.6°
Drops below altitude 10° 21:39:18 10° 209° (SSW) 2,003 ? -23.2°
Sets 21:41:37 0° 201° (SSW) 2,916 ? -23.6°
